Weather History for KCAV - December, 2013

Change the Weather History Date:

Monday, December 16, 2013

  Actual Average Record
Temperature  
Mean Temperature 14 °F -  
Max Temperature 19 °F 29 °F 54 °F (1959)
Min Temperature 8 °F 11 °F -14 °F (1951)
Degree Days  
Heating Degree Days 52    
Moisture  
Dew Point 10 °F    
Average Humidity 86    
Maximum Humidity 100    
Minimum Humidity 73    
Precipitation  
Precipitation 0.00 in - - ()
Sea Level Pressure  
Sea Level Pressure 30.02 in    
Wind  
Wind Speed 10 mph (SSW)    
Max Wind Speed 16 mph    
Max Gust Speed 21 mph    
Visibility 7 miles    
Events      
Averages and records for this station are not official NWS values.
T = Trace of Precipitation, MM = Missing Value Source: NWS Daily Summary

Daily Weather History Graph

Daily Weather History Graph

Search for Another Location

Airport or City:

Trip Planner

Search our weather history database for the weather conditions in past years. The results will help you decide how hot, cold, wet, or windy it might be!

Date:

Astronomy

Dec. 16, 2013 Rise Set
Actual Time 7:39 AM CST 4:42 PM CST
Civil Twilight 7:07 AM CST 5:14 PM CST
Nautical Twilight 6:31 AM CST 5:50 PM CST
Astronomical Twilight 5:57 AM CST 6:24 PM CST
Moon 4:34 PM CST (12/16) 6:47 AM CST (12/16)
Length of Visible Light 10h 07m
Length of Day
9h 02m
Full, 100% of the Moon is Illuminated
Dec 16
Full
Dec 17
Full
Dec 25
Last Quarter
Jan 1
New
Jan 7
First Quarter

Hourly Weather History & Observations

Time (CST) Temp. Windchill Dew Point Humidity Pressure Visibility Wind Dir Wind Speed Gust Speed Precip Events Conditions
12:15 AM 10.4 °F -4.1 °F 5.0 °F 79% 30.04 in 10.0 mi East 11.5 mph - N/A   Overcast
12:35 AM 8.6 °F -5.5 °F 3.2 °F 79% 30.04 in 10.0 mi ESE 10.4 mph - N/A   Overcast
12:55 AM 8.6 °F -3.7 °F 3.2 °F 79% 30.03 in 10.0 mi ESE 8.1 mph - N/A   Overcast
1:15 AM 10.4 °F -3.3 °F 5.0 °F 79% 30.04 in 10.0 mi East 10.4 mph - N/A   Overcast
1:35 AM 10.4 °F -2.4 °F 5.0 °F 79% 30.04 in 10.0 mi East 9.2 mph - N/A   Overcast
1:55 AM 10.4 °F -1.5 °F 3.2 °F 73% 30.04 in 10.0 mi ESE 8.1 mph - N/A   Overcast
2:15 AM 10.4 °F -1.5 °F 5.0 °F 79% 30.04 in 10.0 mi ESE 8.1 mph - N/A   Overcast
2:35 AM 10.4 °F -1.5 °F 5.0 °F 79% 30.04 in 10.0 mi ESE 8.1 mph - N/A   Overcast
2:55 AM 10.4 °F -1.5 °F 5.0 °F 79% 30.05 in 10.0 mi ESE 8.1 mph - N/A   Overcast
3:15 AM 10.4 °F -0.4 °F 5.0 °F 79% 30.05 in 10.0 mi ESE 6.9 mph - N/A   Overcast
4:15 AM 10.4 °F -1.5 °F 5.0 °F 79% 30.03 in 10.0 mi SE 8.1 mph - N/A   Overcast
4:35 AM 10.4 °F -1.5 °F 5.0 °F 79% 30.03 in 10.0 mi SSE 8.1 mph - N/A   Overcast
4:55 AM 10.4 °F -1.5 °F 5.0 °F 79% 30.03 in 10.0 mi SE 8.1 mph - N/A   Overcast
5:15 AM 10.4 °F -3.3 °F 5.0 °F 79% 30.01 in 10.0 mi SSE 10.4 mph - N/A   Overcast
5:35 AM 10.4 °F -4.1 °F 5.0 °F 79% 29.99 in 10.0 mi SSE 11.5 mph - N/A   Overcast
5:55 AM 10.4 °F -2.4 °F 6.8 °F 85% 30.00 in 10.0 mi SSE 9.2 mph - N/A   Overcast
6:15 AM 10.4 °F -3.3 °F 6.8 °F 85% 30.00 in 10.0 mi SSE 10.4 mph - N/A   Overcast
6:35 AM 10.4 °F -3.3 °F 6.8 °F 85% 29.99 in 10.0 mi SSE 10.4 mph - N/A   Overcast
6:55 AM 10.4 °F -3.3 °F 6.8 °F 85% 29.98 in 10.0 mi SSE 10.4 mph - N/A   Overcast
7:15 AM 12.2 °F -0.2 °F 6.8 °F 79% 29.99 in 10.0 mi SSE 9.2 mph - N/A   Overcast
7:35 AM 12.2 °F -1.8 °F 6.8 °F 79% 29.99 in 10.0 mi SSE 11.5 mph - N/A   Overcast
7:55 AM 12.2 °F -1.8 °F 6.8 °F 79% 29.99 in - SSE 11.5 mph - N/A   Overcast
8:15 AM 12.2 °F -0.2 °F 6.8 °F 79% 29.99 in 10.0 mi SSE 9.2 mph - N/A   Overcast
8:35 AM 12.2 °F -2.5 °F 8.6 °F 85% 29.99 in 10.0 mi South 12.7 mph - N/A   Overcast
8:55 AM 12.2 °F -3.1 °F 8.6 °F 85% 29.99 in 10.0 mi South 13.8 mph - N/A   Overcast
9:15 AM 12.2 °F -3.1 °F 10.4 °F 92% 29.99 in 5.0 mi South 13.8 mph - N/A   Overcast
9:35 AM 14.0 °F -0.2 °F 10.4 °F 86% 29.99 in 4.0 mi South 12.7 mph - N/A   Overcast
9:55 AM 14.0 °F 1.2 °F 10.4 °F 86% 29.99 in 3.0 mi South 10.4 mph - N/A   Overcast
10:15 AM 14.0 °F -2.0 °F 12.2 °F 93% 30.00 in 4.0 mi South 16.1 mph - N/A   Overcast
10:35 AM 15.8 °F 2.7 °F 12.2 °F 86% 29.99 in 4.0 mi South 11.5 mph - N/A   Overcast
10:55 AM 15.8 °F 2.1 °F 12.2 °F 86% 29.98 in 4.0 mi South 12.7 mph - N/A   Overcast
11:15 AM 15.8 °F 2.1 °F 12.2 °F 86% 29.98 in 3.0 mi South 12.7 mph - N/A   Overcast
11:35 AM 15.8 °F 2.7 °F 14.0 °F 93% 29.96 in 2.0 mi South 11.5 mph - N/A   Overcast
11:55 AM 17.6 °F 3.7 °F 14.0 °F 86% 29.96 in 2.5 mi SSW 13.8 mph - N/A   Overcast
12:15 PM 17.6 °F 5.0 °F 15.8 °F 93% 29.94 in 2.0 mi SSW 11.5 mph - N/A   Overcast
12:35 PM 17.6 °F 5.0 °F 15.8 °F 93% 29.95 in 2.0 mi SSW 11.5 mph - N/A   Overcast
12:55 PM 17.6 °F 6.4 °F 15.8 °F 93% 29.95 in 2.5 mi SW 9.2 mph - N/A   Overcast
1:15 PM 17.6 °F 5.0 °F 17.6 °F 100% 29.97 in 2.0 mi WSW 11.5 mph - N/A   Overcast
1:35 PM 19.4 °F 7.9 °F 17.6 °F 93% 29.96 in 2.0 mi WSW 10.4 mph - N/A   Overcast
1:55 PM 19.4 °F 6.6 °F 17.6 °F 93% 29.96 in 3.0 mi West 12.7 mph - N/A   Overcast
2:15 PM 19.4 °F 7.2 °F 17.6 °F 93% 29.98 in 3.0 mi WNW 11.5 mph - N/A   Overcast
2:35 PM 19.4 °F 5.5 °F 17.6 °F 93% 29.98 in 5.0 mi WNW 15.0 mph 20.7 mph N/A   Overcast
2:55 PM 19.4 °F 6.6 °F 15.8 °F 86% 29.99 in 5.0 mi NW 12.7 mph - N/A   Overcast
3:15 PM 19.4 °F 8.6 °F 15.8 °F 86% 29.99 in 6.0 mi NW 9.2 mph 17.3 mph N/A   Overcast
3:35 PM 19.4 °F 7.9 °F 15.8 °F 86% 30.01 in 6.0 mi NW 10.4 mph - N/A   Overcast
3:55 PM 17.6 °F 6.4 °F 14.0 °F 86% 30.02 in 6.0 mi NW 9.2 mph - N/A   Overcast
4:15 PM 17.6 °F 9.3 °F 14.0 °F 86% 30.03 in 7.0 mi WNW 5.8 mph - N/A   Overcast
4:35 PM 17.6 °F 10.7 °F 14.0 °F 86% 30.02 in 7.0 mi West 4.6 mph - N/A   Overcast
4:55 PM 17.6 °F 7.3 °F 14.0 °F 86% 30.03 in 7.0 mi West 8.1 mph - N/A   Overcast
5:15 PM 17.6 °F 7.3 °F 14.0 °F 86% 30.05 in 8.0 mi WNW 8.1 mph - N/A   Overcast
5:35 PM 17.6 °F 7.3 °F 14.0 °F 86% 30.04 in 9.0 mi WNW 8.1 mph - N/A   Overcast
5:55 PM 17.6 °F 6.4 °F 14.0 °F 86% 30.05 in 8.0 mi WNW 9.2 mph - N/A   Mostly Cloudy
6:15 PM 15.8 °F 5.1 °F 12.2 °F 86% 30.05 in 7.0 mi West 8.1 mph - N/A   Partly Cloudy
6:35 PM 12.2 °F 1.7 °F 10.4 °F 92% 30.05 in 7.0 mi WSW 6.9 mph - N/A   Clear
6:55 PM 12.2 °F 0.7 °F 8.6 °F 85% 30.05 in 7.0 mi WSW 8.1 mph - N/A   Clear
7:15 PM 10.4 °F -0.4 °F 6.8 °F 85% 30.05 in 7.0 mi SW 6.9 mph - N/A   Clear
7:35 PM 8.6 °F -2.6 °F 5.0 °F 85% 30.05 in 8.0 mi SW 6.9 mph - N/A   Partly Cloudy
7:55 PM 10.4 °F 0.8 °F 8.6 °F 92% 30.05 in 8.0 mi SW 5.8 mph - N/A   Partly Cloudy
8:15 PM 12.2 °F 2.9 °F 8.6 °F 85% 30.05 in 8.0 mi SW 5.8 mph - N/A   Partly Cloudy
8:35 PM 12.2 °F 4.3 °F 8.6 °F 85% 30.05 in 10.0 mi SW 4.6 mph - N/A   Mostly Cloudy
8:55 PM 14.0 °F 6.5 °F 10.4 °F 86% 30.06 in 10.0 mi WSW 4.6 mph - N/A   Overcast
9:15 PM 14.0 °F 5.1 °F 12.2 °F 93% 30.06 in 9.0 mi WSW 5.8 mph - N/A   Mostly Cloudy
9:35 PM 15.8 °F 8.6 °F 12.2 °F 86% 30.06 in 10.0 mi SW 4.6 mph - N/A   Mostly Cloudy
9:55 PM 14.0 °F 6.5 °F 12.2 °F 93% 30.06 in 10.0 mi SW 4.6 mph - N/A   Mostly Cloudy
10:15 PM 14.0 °F 3.9 °F 12.2 °F 93% 30.05 in 9.0 mi SSW 6.9 mph - N/A   Partly Cloudy
10:35 PM 15.8 °F 6.1 °F 12.2 °F 86% 30.05 in 9.0 mi SSW 6.9 mph - N/A   Partly Cloudy
10:55 PM 12.2 °F 4.3 °F 10.4 °F 92% 30.05 in 9.0 mi SSW 4.6 mph - N/A   Partly Cloudy
11:15 PM 10.4 °F 0.8 °F 8.6 °F 92% 30.05 in 8.0 mi SSW 5.8 mph - N/A   Clear
11:55 PM 10.4 °F 2.2 °F 8.6 °F 92% 30.05 in 7.0 mi SSW 4.6 mph - N/A   Scattered Clouds